TimeHST,TemperatureF,Dew PointF,Humidity,Sea Level PressureIn,VisibilityMPH,Wind Direction,Wind SpeedMPH,Gust SpeedMPH,PrecipitationIn,Events,Conditions,WindDirDegrees,DateUTC
12:53 AM,73.9,66.9,79,30.13,10.0,ENE,18.4,-,N/A,,Scattered Clouds,60,2012-05-25 10:53:00
1:53 AM,75.0,66.9,76,30.11,10.0,ENE,17.3,-,N/A,,Mostly Cloudy,60,2012-05-25 11:53:00
2:53 AM,73.9,66.0,76,30.10,10.0,ENE,17.3,-,N/A,,Mostly Cloudy,70,2012-05-25 12:53:00
3:53 AM,73.9,66.9,79,30.09,10.0,ENE,19.6,-,0.00,Rain,Light Rain,60,2012-05-25 13:53:00
4:53 AM,73.9,66.9,79,30.10,10.0,ENE,16.1,-,0.01,,Overcast,60,2012-05-25 14:53:00
5:38 AM,73.4,66.2,78,30.11,6.0,ENE,15.0,-,0.00,Rain,Light Rain,70,2012-05-25 15:38:00
5:53 AM,73.0,66.9,81,30.10,10.0,ENE,17.3,-,0.00,,Overcast,60,2012-05-25 15:53:00
6:53 AM,73.9,68.0,82,30.12,10.0,ENE,19.6,-,N/A,,Overcast,60,2012-05-25 16:53:00
7:53 AM,75.9,63.0,64,30.14,10.0,ENE,20.7,-,N/A,,Partly Cloudy,70,2012-05-25 17:53:00
8:53 AM,78.1,64.9,64,30.14,10.0,ENE,18.4,-,N/A,,Partly Cloudy,60,2012-05-25 18:53:00
9:12 AM,78.8,64.4,61,30.15,10.0,ENE,15.0,-,N/A,,Mostly Cloudy,70,2012-05-25 19:12:00
9:44 AM,78.8,64.4,61,30.15,10.0,NE,15.0,-,N/A,,Mostly Cloudy,50,2012-05-25 19:44:00
9:53 AM,79.0,66.0,64,30.15,10.0,ENE,15.0,-,N/A,,Mostly Cloudy,60,2012-05-25 19:53:00
10:53 AM,81.0,66.0,60,30.14,10.0,ENE,11.5,-,N/A,,Overcast,60,2012-05-25 20:53:00
11:53 AM,81.0,66.0,60,30.13,10.0,ENE,12.7,-,N/A,,Overcast,60,2012-05-25 21:53:00
12:53 PM,81.0,66.9,62,30.12,10.0,NNE,15.0,-,N/A,,Scattered Clouds,30,2012-05-25 22:53:00
1:37 PM,82.4,68.0,62,30.11,10.0,NE,15.0,-,N/A,,Partly Cloudy,40,2012-05-25 23:37:00
1:53 PM,82.0,66.9,60,30.11,10.0,NE,16.1,-,N/A,,Scattered Clouds,40,2012-05-25 23:53:00
2:53 PM,80.1,68.0,67,30.09,10.0,NE,16.1,-,N/A,,Partly Cloudy,40,2012-05-26 00:53:00
3:53 PM,80.1,69.1,69,30.09,10.0,NE,18.4,-,N/A,,Partly Cloudy,40,2012-05-26 01:53:00
4:53 PM,77.0,68.0,74,30.09,10.0,NE,15.0,-,N/A,,Overcast,50,2012-05-26 02:53:00
5:53 PM,77.0,68.0,74,30.09,10.0,NNE,16.1,-,N/A,,Overcast,30,2012-05-26 03:53:00
6:53 PM,75.0,68.0,79,30.10,10.0,NE,16.1,-,N/A,,Overcast,40,2012-05-26 04:53:00
7:53 PM,75.0,69.1,82,30.11,10.0,NE,15.0,-,N/A,,Overcast,50,2012-05-26 05:53:00
8:22 PM,75.2,68.0,78,30.12,10.0,NE,16.1,-,N/A,,Overcast,50,2012-05-26 06:22:00
8:53 PM,73.9,69.1,85,30.12,10.0,NE,16.1,-,0.00,,Mostly Cloudy,50,2012-05-26 06:53:00
9:26 PM,73.4,69.8,88,30.14,4.0,ENE,20.7,27.6,0.00,Rain,Light Rain,70,2012-05-26 07:26:00
9:51 PM,73.4,68.0,83,30.13,10.0,ENE,19.6,-,0.02,,Overcast,60,2012-05-26 07:51:00
9:53 PM,73.0,68.0,84,30.13,10.0,ENE,16.1,-,0.02,,Overcast,60,2012-05-26 07:53:00
10:15 PM,73.4,69.8,88,30.14,10.0,ENE,19.6,24.2,N/A,,Overcast,60,2012-05-26 08:15:00
10:53 PM,73.9,68.0,82,30.13,10.0,ENE,21.9,-,N/A,,Mostly Cloudy,70,2012-05-26 08:53:00
11:44 PM,73.4,69.8,88,30.13,10.0,ENE,18.4,-,N/A,,Overcast,70,2012-05-26 09:44:00
11:53 PM,73.0,69.1,87,30.13,4.0,East,23.0,28.8,0.00,Rain,Heavy Rain,80,2012-05-26 09:53:00